Tracking 30922 objects as of 2-Jul-2025
HD Live streaming from Space Station
objects crossing your sky now

BLACKJACK ACES-2

Track BLACKJACK ACES-2 now!
10-day predictions


NORAD ID: 56955
Int'l Code: 2023-084Z
Perigee: 504.2 km
Apogee: 517.2 km
Inclination: 97.6 °
Period: 94.7 minutes
Semi major axis: 6881 km
RCS: Unknown
Launch date: June 12, 2023
Source: United States (US)
Launch site: AIR FORCE WESTERN TEST RANGE (AFWTR)
Your satellite tracking list
STARLINK-5672
Track 1 satellite(s)




NASA's NSSDC Master Catalog

Two Line Element Set (TLE):
1 56955U 23084Z   25182.25003892  .00007441  00000-0  34085-3 0  9993
2 56955  97.5784 309.8703 0009431 122.7529 237.4616 15.20743397113855
Source of the keplerian elements: AFSPC